FENGYUN 1C DEB, 37018

Orbit data source: Space-Track

FENGYUN 1C DEB, 37018 is space debris in SSO originally from a launch on Mon, 10 May 1999 UTC launched from the Taiyaun Space Center, China (TSC). Fengyun 1C debris stems from the Chinese weather satellite Fengyun-1C, which was intentionally destroyed by a Chinese anti-satellite missile in 2007. This event dramatically increased the amount of space debris, with thousands of trackable fragments posing hazards to satellites and human spaceflight. The Fengyun 1C debris cloud has become a focal point in discussions about space sustainability and the need for international regulations to prevent the creation of new debris.

Loading next visibility...
Identifier
37018, 1999-025EDA
Orbit
SSO
Country
Flag of CNCN / PRC
Related business
Manufacturer
Unknown
Mission
Spacecraft
Bus & Motor
Unknown
Mass
Unknown
Launch date (UTC)
1999-05-10 (27 years ago)
Launch vehicle
Unknown
Launch site
Taiyaun Space Center, China (TSC)
Object type
Payload
Rocket body
Debris
Shape & HBR
Unknown shape, 0.1 m
Radar Cross Section
Small (<0.1 m²)

Expand to show TLE details & history
Last TLE update: 2 days ago

TLE from 2 days ago
0 FENGYUN 1C DEB
1 37018U 99025EDA 26254.35796313  .00010780  00000-0  23365-2 0  9997
2 37018  98.4983 113.5533 0184324 175.8884 184.3876 14.48259433674665
Epoch: 2026-09-11T08:35Z
TLE epoch observation values (Epoch: 2026-09-11T08:35:28.014Z)
Latitude
-0.00001°
Longitude
-5.69589°
Altitude
865.002 km
Speed
7.351 km/s
True Right ascension
07h 34m 12s
True Declination
0° 00' 00"
Sunlit
Object was in daylight at epoch
Visualization orbit readout
Latitude
Unknown
Longitude
Unknown
Altitude
Unknown
Speed
Unknown
Apparent Right ascension
Unknown
Apparent Declination
Unknown
Sunlit
N/A
Visualization observer readout
Local Sidereal Time
18:51:18
Azimuth
Unknown
Elevation
Unknown
Doppler factor
Unknown
Orbital elements
Apogee altitude
859.44 km
Perigee altitude
597.457 km
Semi-major axis
7,106.585 km
Eccentricity
0.01843
Inclination
98.4983°
RAAN
113.5533°
Arg. of periapsis
175.8884°
True anomaly
184.22964°
Mean anomaly
184.3876°
Eccentric anomaly
184.30826°
Mean motion
3.62286 °/min
Orbital period
99.37 mins
BSTAR
0.0023365
Loading maneuver chart data...
Computing Atmospheric mass density...

Documentation

Showing up to 5 results
|